FW6629 Weather Reports


Display with metric or nautical units.
time (UTC)temp
F
wind
direction
speed
MPH
gust
MPH
rain 1hr
in
rain 24hr
in
rain mn
in
humidity
%
barometer
mb
20260510160524 79 120 1.0 4.0 0.00 0.00 0.00 53 1017.3
20260510160037 78 102 1.0 6.0 0.00 0.00 0.00 57 1017.3
20260510155521 78 25 1.0 6.0 0.00 0.00 0.00 52 1017.2
20260510155021 78 79 1.0 4.0 0.00 0.00 0.00 56 1017.2
20260510154547 78 0 0.0 5.0 0.00 0.00 0.00 57 1017.3
20260510154020 78 58 2.0 5.0 0.00 0.00 0.00 58 1017.3
20260510153521 77 153 0.0 5.0 0.00 0.00 0.00 62 1017.3
20260510153041 77 108 2.0 5.0 0.00 0.00 0.00 62 1017.3
20260510152524 76 106 2.0 5.0 0.00 0.00 0.00 67 1017.2
20260510152021 76 65 2.0 5.0 0.00 0.00 0.00 67 1017.3
20260510151549 76 121 2.0 5.0 0.00 0.00 0.00 70 1017.4
20260510151023 75 202 2.0 5.0 0.00 0.00 0.00 70 1017.4
20260510150521 75 85 1.0 5.0 0.00 0.00 0.00 71 1017.3
20260510150051 74 144 1.0 4.0 0.00 0.00 0.00 72 1017.4
20260510145526 74 356 1.0 4.0 0.00 0.00 0.00 73 1017.4
20260510145023 73 156 1.0 4.0 0.00 0.00 0.00 74 1017.3
20260510144553 73 0 0.0 4.0 0.00 0.00 0.00 76 1017.4
20260510144023 72 120 2.0 4.0 0.00 0.00 0.00 77 1017.4
20260510143524 71 132 1.0 3.0 0.00 0.00 0.00 80 1017.4
20260510143036 70 94 1.0 2.0 0.00 0.00 0.00 81 1017.4
20260510142521 69 157 1.0 2.0 0.00 0.00 0.00 84 1017.4
20260510142023 68 88 1.0 2.0 0.00 0.00 0.00 87 1017.4
20260510141538 67 63 0.0 2.0 0.00 0.00 0.00 89 1017.3
20260510141023 66 71 0.0 3.0 0.00 0.00 0.00 91 1017.4
20260510140527 65 305 1.0 3.0 0.00 0.00 0.00 91 1017.3
20260510140046 65 4 1.0 3.0 0.00 0.00 0.00 91 1017.3
20260510135521 64 23 0.0 2.0 0.00 0.00 0.00 92 1017.3
20260510135021 64 0 0.0 2.0 0.00 0.00 0.00 92 1017.3
20260510134547 63 0 1.0 2.0 0.00 0.00 0.00 92 1017.3
20260510134025 63 285 0.0 2.0 0.00 0.00 0.00 92 1017.3
20260510133523 62 352 1.0 2.0 0.00 0.00 0.00 92 1017.3
20260510133044 62 0 1.0 2.0 0.00 0.00 0.00 92 1017.3
20260510132524 62 0 0.0 2.0 0.00 0.00 0.00 92 1017.2
20260510132023 61 0 0.0 2.0 0.00 0.00 0.00 92 1017.2
20260510131540 61 62 0.0 2.0 0.00 0.00 0.00 92 1017.1
20260510131025 60 85 0.0 2.0 0.00 0.00 0.00 92 1017.0
20260510130521 59 0 0.0 2.0 0.00 0.00 0.00 92 1017.1
20260510130045 59 0 0.0 2.0 0.00 0.00 0.00 92 1017.1
20260510125522 58 2 0.0 2.0 0.00 0.00 0.00 92 1017.1
20260510125024 58 356 1.0 2.0 0.00 0.00 0.00 92 1017.1
20260510124542 57 23 0.0 2.0 0.00 0.00 0.00 92 1017.2
20260510124024 57 43 0.0 2.0 0.00 0.00 0.00 92 1017.0
20260510123521 56 0 0.0 2.0 0.00 0.00 0.00 92 1016.9
20260510123044 56 0 0.0 2.0 0.00 0.00 0.00 92 1016.9
20260510122523 55 0 0.0 2.0 0.00 0.00 0.00 91 1016.8
20260510122023 55 157 0.0 2.0 0.00 0.00 0.00 92 1016.9
20260510121542 55 153 0.0 2.0 0.00 0.00 0.00 91 1016.9
20260510121024 54 133 0.0 2.0 0.00 0.00 0.00 91 1016.8
20260510120521 54 0 0.0 2.0 0.00 0.00 0.00 91 1016.9
20260510120047 54 0 0.0 2.0 0.00 0.00 0.00 91 1016.8
20260510115521 53 158 0.0 2.0 0.00 0.00 0.00 91 1016.8
20260510115024 53 0 0.0 2.0 0.00 0.00 0.00 91 1016.7
20260510114605 53 67 0.0 2.0 0.00 0.00 0.00 91 1016.7
20260510114022 53 0 0.0 2.0 0.00 0.00 0.00 91 1016.7
20260510113523 53 67 0.0 2.0 0.00 0.00 0.00 91 1016.4
20260510113054 53 0 0.0 2.0 0.00 0.00 0.00 91 1016.4
20260510112521 53 0 0.0 2.0 0.00 0.00 0.00 91 1016.3
20260510112021 52 0 0.0 0.0 0.00 0.00 0.00 91 1016.2
20260510111543 52 0 0.0 0.0 0.00 0.00 0.00 91 1016.1
20260510111021 52 0 0.0 2.0 0.00 0.00 0.00 91 1016.0
20260510110524 52 0 0.0 2.0 0.00 0.00 0.00 91 1016.0
20260510110042 52 0 0.0 2.0 0.00 0.00 0.00 91 1015.9
20260510105521 52 0 0.0 0.0 0.00 0.00 0.00 90 1015.7
20260510105022 52 0 0.0 0.0 0.00 0.00 0.00 90 1015.7
20260510104548 52 0 0.0 0.0 0.00 0.00 0.00 90 1015.4
20260510104023 52 0 0.0 0.0 0.00 0.00 0.00 90 1015.4
20260510103523 52 0 0.0 0.0 0.00 0.00 0.00 90 1015.3
20260510103047 52 0 0.0 1.0 0.00 0.00 0.00 90 1015.2
20260510102524 52 0 0.0 2.0 0.00 0.00 0.00 90 1015.2
20260510102023 52 65 1.0 2.0 0.00 0.00 0.00 90 1015.3
20260510101536 52 11 0.0 2.0 0.00 0.00 0.00 90 1015.2
20260510101026 52 0 0.0 2.0 0.00 0.00 0.00 90 1015.2
20260510100521 53 0 0.0 2.0 0.00 0.00 0.00 90 1015.2
20260510100057 53 0 0.0 0.0 0.00 0.00 0.00 90 1015.2
20260510095523 53 0 0.0 1.0 0.00 0.00 0.00 90 1015.2
20260510095024 53 0 0.0 1.0 0.00 0.00 0.00 90 1015.0
20260510094550 53 11 0.0 2.0 0.00 0.00 0.00 90 1015.0
20260510094021 53 11 0.0 2.0 0.00 0.00 0.00 90 1015.1
20260510093525 53 0 0.0 2.0 0.00 0.00 0.00 90 1014.9
20260510093041 53 39 0.0 2.0 0.00 0.00 0.00 90 1014.7
20260510092524 53 0 0.0 0.0 0.00 0.00 0.00 90 1014.8
20260510092024 53 0 0.0 0.0 0.00 0.00 0.00 90 1014.8
20260510091537 53 0 0.0 2.0 0.00 0.00 0.00 90 1014.8
20260510091026 53 0 0.0 2.0 0.00 0.00 0.00 90 1014.8
20260510090521 53 0 0.0 2.0 0.00 0.00 0.00 90 1014.7
20260510090040 53 0 0.0 2.0 0.00 0.00 0.00 90 1014.8
20260510085523 54 0 0.0 2.0 0.00 0.00 0.00 90 1014.7
20260510085023 54 0 0.0 2.0 0.00 0.00 0.00 90 1014.5
20260510084536 54 0 0.0 2.0 0.00 0.00 0.00 90 1014.6
20260510084021 54 0 0.0 2.0 0.00 0.00 0.00 90 1014.4
20260510083523 54 0 0.0 0.0 0.00 0.00 0.00 90 1014.3
20260510083044 54 0 0.0 1.0 0.00 0.00 0.00 90 1014.2
20260510082524 54 0 0.0 1.0 0.00 0.00 0.00 90 1014.1
20260510082021 54 113 0.0 1.0 0.00 0.00 0.00 90 1014.1
20260510081541 54 113 0.0 1.0 0.00 0.00 0.00 89 1014.1
20260510081021 54 0 0.0 0.0 0.00 0.00 0.00 89 1014.1
20260510080523 55 0 0.0 0.0 0.00 0.00 0.00 89 1013.9
20260510080041 55 0 0.0 2.0 0.00 0.00 0.00 90 1013.9
20260510075520 55 0 0.0 2.0 0.00 0.00 0.00 90 1013.9
20260510075021 55 113 0.0 2.0 0.00 0.00 0.00 89 1013.9
20260510074542 55 0 0.0 2.0 0.00 0.00 0.00 89 1013.8
20260510074026 55 0 0.0 2.0 0.00 0.00 0.00 89 1013.8
20260510073523 55 113 0.0 2.0 0.00 0.00 0.00 90 1013.8
20260510073039 55 0 0.0 2.0 0.00 0.00 0.00 90 1013.8
20260510072524 56 0 0.0 0.0 0.00 0.00 0.00 89 1013.8
20260510072028 56 0 0.0 0.0 0.00 0.00 0.00 89 1013.8
20260510071537 56 0 0.0 2.0 0.00 0.00 0.00 89 1013.9
20260510071021 56 0 0.0 2.0 0.00 0.00 0.00 90 1013.8
20260510070523 56 0 0.0 2.0 0.00 0.00 0.00 90 1013.9
20260510070058 56 113 0.0 2.0 0.00 0.00 0.00 89 1013.9
20260510065521 56 0 0.0 2.0 0.00 0.00 0.00 89 1013.9
20260510065023 56 113 1.0 2.0 0.00 0.00 0.00 89 1014.0
20260510064546 57 0 0.0 2.0 0.00 0.00 0.00 89 1013.8
20260510064024 57 0 0.0 0.0 0.00 0.00 0.00 89 1013.8
20260510063521 57 0 0.0 2.0 0.00 0.00 0.00 89 1013.8
20260510063043 57 0 0.0 2.0 0.00 0.00 0.00 89 1013.8
20260510062523 57 0 0.0 2.0 0.00 0.00 0.00 89 1013.7
20260510062023 57 2 1.0 1.0 0.00 0.00 0.00 89 1013.8
20260510061538 57 2 0.0 1.0 0.00 0.00 0.00 89 1013.7
20260510061024 57 2 1.0 1.0 0.00 0.00 0.00 89 1013.7
20260510060524 58 85 0.0 2.0 0.00 0.00 0.00 89 1013.7
20260510060048 58 0 0.0 2.0 0.00 0.00 0.00 89 1013.7
20260510055523 58 0 0.0 2.0 0.00 0.00 0.00 89 1013.8
20260510055024 58 128 1.0 2.0 0.00 0.00 0.00 89 1013.8
20260510054538 58 0 0.0 2.0 0.00 0.00 0.00 89 1013.8
20260510054024 58 128 0.0 2.0 0.00 0.00 0.00 89 1013.8
20260510053521 58 128 0.0 2.0 0.00 0.00 0.00 89 1013.8
20260510053043 59 0 0.0 2.0 0.00 0.00 0.00 89 1013.7
20260510052521 59 141 0.0 2.0 0.00 0.00 0.00 89 1013.8
20260510052021 59 0 0.0 1.0 0.00 0.00 0.00 89 1013.7
20260510051541 59 141 0.0 2.0 0.00 0.00 0.00 89 1013.8
20260510051022 59 0 0.0 2.0 0.00 0.00 0.00 89 1013.8
20260510050522 59 138 1.0 2.0 0.00 0.00 0.00 89 1014.0
20260510050040 59 0 0.0 2.0 0.00 0.00 0.00 89 1014.0
20260510045526 59 164 0.0 2.0 0.00 0.00 0.00 89 1014.0
20260510045024 59 125 1.0 2.0 0.00 0.00 0.00 89 1014.0
20260510044538 59 123 1.0 2.0 0.00 0.00 0.00 88 1014.0
20260510044023 59 144 0.0 2.0 0.00 0.00 0.00 88 1014.0
20260510043522 60 187 0.0 2.0 0.00 0.00 0.00 88 1014.1
20260510043047 60 0 1.0 2.0 0.00 0.00 0.00 88 1014.1
20260510042524 60 107 1.0 2.0 0.00 0.00 0.00 88 1014.1
20260510042024 60 125 1.0 2.0 0.00 0.00 0.00 87 1014.1
20260510041550 60 189 0.0 2.0 0.00 0.00 0.00 87 1014.1
20260510041021 60 194 0.0 2.0 0.00 0.00 0.00 87 1014.1
20260510040521 60 0 0.0 2.0 0.00 0.00 0.00 87 1014.1
20260510040042 60 115 1.0 2.0 0.00 0.00 0.00 86 1014.1
20260510035523 61 115 0.0 2.0 0.00 0.00 0.00 85 1014.1
20260510035026 61 0 0.0 1.0 0.00 0.00 0.00 85 1014.0
20260510034541 61 115 0.0 2.0 0.00 0.00 0.00 85 1014.0
20260510034023 61 115 0.0 2.0 0.00 0.00 0.00 84 1014.0
20260510033522 61 0 0.0 0.0 0.00 0.00 0.00 83 1014.0
20260510033107 62 0 0.0 1.0 0.00 0.00 0.00 83 1014.1
20260510032522 62 0 0.0 1.0 0.00 0.00 0.00 82 1014.1
20260510032022 62 0 0.0 0.0 0.00 0.00 0.00 82 1014.1
20260510031558 62 0 0.0 0.0 0.00 0.00 0.00 82 1014.1
20260510031023 63 0 0.0 1.0 0.00 0.00 0.00 81 1014.0
20260510030523 63 0 0.0 1.0 0.00 0.00 0.00 81 1013.9
20260510030045 63 0 0.0 1.0 0.00 0.00 0.00 80 1014.0
20260510025526 63 0 0.0 2.0 0.00 0.00 0.00 81 1013.9
20260510025024 64 115 0.0 2.0 0.00 0.00 0.00 80 1013.8
20260510024545 64 115 0.0 1.0 0.00 0.00 0.00 80 1013.6
20260510024021 64 0 0.0 2.0 0.00 0.00 0.00 80 1013.5
20260510023523 64 0 0.0 2.0 0.00 0.00 0.00 79 1013.5
20260510023038 65 0 0.0 2.0 0.00 0.00 0.00 78 1013.4
20260510022523 65 115 0.0 1.0 0.00 0.00 0.00 77 1013.4
20260510022020 65 115 0.0 2.0 0.00 0.00 0.00 77 1013.4
20260510021540 65 115 0.0 2.0 0.00 0.00 0.00 77 1013.4
20260510021022 66 115 0.0 2.0 0.00 0.00 0.00 76 1013.3
20260510020524 66 115 0.0 2.0 0.00 0.00 0.00 76 1013.1
20260510020048 66 0 0.0 3.0 0.00 0.00 0.00 75 1013.0
20260510015523 66 0 0.0 3.0 0.00 0.00 0.00 76 1013.0
20260510015023 66 122 1.0 3.0 0.00 0.00 0.00 75 1013.0
20260510014538 67 100 1.0 2.0 0.00 0.00 0.00 74 1012.9
20260510014025 67 104 1.0 2.0 0.00 0.00 0.00 74 1012.8
20260510013524 67 0 0.0 2.0 0.00 0.00 0.00 74 1012.7
20260510013040 67 127 0.0 2.0 0.00 0.00 0.00 73 1012.7
20260510012523 68 127 1.0 2.0 0.00 0.00 0.00 73 1012.6
20260510012021 68 102 1.0 2.0 0.00 0.00 0.00 73 1012.4
20260510011544 68 102 1.0 2.0 0.00 0.00 0.00 71 1012.3
20260510011024 69 205 0.0 2.0 0.00 0.00 0.00 69 1012.4
20260510010523 69 200 0.0 2.0 0.00 0.00 0.00 68 1012.2
20260510010049 69 208 0.0 2.0 0.00 0.00 0.00 68 1012.2
20260510005524 70 199 0.0 2.0 0.00 0.00 0.00 68 1012.2
20260510005023 70 0 0.0 2.0 0.00 0.00 0.00 67 1011.9
20260510004541 70 162 0.0 2.0 0.00 0.00 0.00 67 1012.0
20260510004023 71 0 0.0 2.0 0.00 0.00 0.00 66 1012.0
20260510003525 71 200 0.0 2.0 0.00 0.00 0.00 66 1011.9
20260510003058 71 200 0.0 2.0 0.00 0.00 0.00 66 1011.8
20260510002524 71 0 1.0 3.0 0.00 0.00 0.00 65 1011.8
20260510002023 71 112 0.0 3.0 0.00 0.00 0.00 64 1011.7
20260510001542 72 124 0.0 2.0 0.00 0.00 0.00 64 1011.6
20260510001023 72 246 0.0 2.0 0.00 0.00 0.00 64 1011.5
20260510000524 72 289 0.0 3.0 0.00 0.00 0.00 64 1011.4
20260510000052 72 316 0.0 4.0 0.00 0.00 0.00 64 1011.4
20260509235522 72 349 1.0 8.0 0.00 0.00 0.00 64 1011.3
20260509235030 73 304 3.0 8.0 0.00 0.00 0.00 64 1011.5
20260509234558 73 300 3.0 5.0 0.00 0.00 0.00 64 1011.5
20260509234025 73 298 2.0 5.0 0.00 0.00 0.00 64 1011.4
20260509233520 74 312 1.0 6.0 0.00 0.00 0.00 65 1011.4
20260509233041 74 300 2.0 6.0 0.00 0.00 0.00 65 1011.2
20260509232522 74 293 3.0 6.0 0.00 0.00 0.00 64 1011.3
20260509232021 74 323 3.0 6.0 0.00 0.00 0.00 64 1011.2
20260509231538 74 305 3.0 6.0 0.00 0.00 0.00 64 1011.1
20260509231021 75 284 1.0 4.0 0.00 0.00 0.00 65 1011.2
20260509230522 75 308 1.0 3.0 0.00 0.00 0.00 65 1011.1
20260509230038 75 275 1.0 4.0 0.00 0.00 0.00 64 1011.1
20260509225520 75 262 1.0 4.0 0.00 0.00 0.00 63 1011.0
20260509225025 75 310 2.0 4.0 0.00 0.00 0.00 62 1011.1
20260509224536 75 306 1.0 5.0 0.00 0.00 0.00 62 1011.1
20260509224020 75 323 1.0 5.0 0.00 0.00 0.00 62 1011.1
20260509223524 75 310 2.0 4.0 0.00 0.00 0.00 62 1011.1
20260509223040 75 200 1.0 4.0 0.00 0.00 0.00 62 1011.1
20260509222521 76 259 1.0 5.0 0.00 0.00 0.00 62 1011.0
20260509222027 75 249 2.0 5.0 0.00 0.00 0.00 61 1011.0
20260509221549 76 183 1.0 4.0 0.00 0.00 0.00 61 1010.9
20260509221023 76 289 2.0 4.0 0.00 0.00 0.00 60 1010.8
20260509220523 76 296 2.0 4.0 0.00 0.00 0.00 59 1010.7
20260509220056 76 297 1.0 4.0 0.00 0.00 0.00 58 1010.6
20260509215522 76 310 1.0 4.0 0.00 0.00 0.00 59 1010.5
20260509215026 76 210 2.0 5.0 0.00 0.00 0.00 58 1010.6
20260509214543 76 22 2.0 6.0 0.00 0.00 0.00 57 1010.6
20260509214023 76 220 2.0 6.0 0.00 0.00 0.00 57 1010.6
20260509213525 76 296 3.0 6.0 0.00 0.00 0.00 57 1010.7
20260509213041 76 298 1.0 6.0 0.00 0.00 0.00 58 1010.6
20260509212521 76 283 3.0 6.0 0.00 0.00 0.00 57 1010.7
20260509212023 76 80 2.0 6.0 0.00 0.00 0.00 56 1010.7
20260509211542 76 284 1.0 5.0 0.00 0.00 0.00 57 1010.7
20260509211023 76 202 2.0 7.0 0.00 0.00 0.00 56 1010.7
20260509210522 76 303 3.0 11.0 0.00 0.00 0.00 56 1010.8
20260509210043 77 293 2.0 11.0 0.00 0.00 0.00 54 1010.8
20260509205521 77 159 3.0 10.0 0.00 0.00 0.00 53 1010.8
20260509205023 77 139 3.0 9.0 0.00 0.00 0.00 53 1010.8
20260509204544 77 223 2.0 9.0 0.00 0.00 0.00 54 1010.7
20260509204023 77 219 2.0 5.0 0.00 0.00 0.00 53 1010.6
20260509203524 77 214 3.0 6.0 0.00 0.00 0.00 54 1010.5
20260509203044 77 343 3.0 6.0 0.00 0.00 0.00 53 1010.3
20260509202523 77 270 2.0 5.0 0.00 0.00 0.00 56 1010.3
20260509202024 77 228 1.0 9.0 0.00 0.00 0.00 55 1010.3
20260509201542 77 305 3.0 9.0 0.00 0.00 0.00 55 1010.2
20260509201023 77 241 4.0 9.0 0.00 0.00 0.00 56 1010.3
20260509200524 77 288 3.0 8.0 0.00 0.00 0.00 57 1010.3
20260509200044 77 223 1.0 9.0 0.00 0.00 0.00 56 1010.3
20260509195524 77 15 4.0 9.0 0.00 0.00 0.00 55 1010.5
20260509195026 76 314 2.0 6.0 0.00 0.00 0.00 59 1010.6
20260509194546 76 98 0.0 5.0 0.00 0.00 0.00 59 1010.7
20260509194023 76 132 3.0 5.0 0.00 0.00 0.00 59 1010.7
20260509193523 76 98 0.0 5.0 0.00 0.00 0.00 60 1010.7
20260509193042 76 235 3.0 9.0 0.00 0.00 0.00 59 1010.7
20260509192524 76 146 5.0 9.0 0.00 0.00 0.00 59 1010.8
20260509192027 76 103 4.0 9.0 0.00 0.00 0.00 59 1010.9
20260509191537 76 124 4.0 9.0 0.00 0.00 0.00 61 1010.8
20260509191025 76 157 3.0 5.0 0.00 0.00 0.00 59 1010.9
20260509190523 76 116 2.0 7.0 0.00 0.00 0.00 61 1010.9
20260509190041 76 140 3.0 7.0 0.00 0.00 0.00 60 1011.0
20260509185524 76 211 2.0 7.0 0.00 0.00 0.00 60 1011.1
20260509185025 76 220 3.0 7.0 0.00 0.00 0.00 60 1011.2
20260509184538 77 160 3.0 7.0 0.00 0.00 0.00 59 1011.2
20260509184022 78 92 2.0 5.0 0.00 0.00 0.00 56 1011.2
20260509183522 77 275 2.0 5.0 0.00 0.00 0.00 59 1011.2
20260509183044 77 331 2.0 7.0 0.00 0.00 0.00 59 1011.0
20260509182522 77 160 2.0 7.0 0.00 0.00 0.00 57 1011.1
20260509182024 77 96 3.0 6.0 0.00 0.00 0.00 59 1011.2
20260509181544 75 192 2.0 6.0 0.00 0.00 0.00 61 1011.3
20260509181021 75 67 1.0 5.0 0.00 0.00 0.00 59 1011.3
20260509180522 75 323 1.0 6.0 0.00 0.00 0.00 60 1011.1
20260509180044 75 356 2.0 6.0 0.00 0.00 0.00 61 1011.0
20260509175523 75 203 2.0 6.0 0.00 0.00 0.00 59 1011.0
20260509175025 75 177 2.0 5.0 0.00 0.00 0.00 58 1011.0
20260509174552 76 227 1.0 5.0 0.00 0.00 0.00 59 1011.0
20260509174021 76 283 2.0 9.0 0.00 0.00 0.00 59 1011.0
20260509173522 76 333 4.0 9.0 0.00 0.00 0.00 60 1010.9
20260509173044 75 96 2.0 5.0 0.00 0.00 0.00 63 1011.1
20260509172523 75 0 0.0 9.0 0.00 0.00 0.00 59 1011.2
20260509172023 75 81 1.0 9.0 0.00 0.00 0.00 61 1011.4
20260509171539 75 142 5.0 9.0 0.00 0.00 0.00 61 1011.5
20260509171021 75 158 3.0 9.0 0.00 0.00 0.00 61 1011.7
20260509170521 74 85 2.0 9.0 0.00 0.00 0.00 63 1011.7
20260509170047 74 146 5.0 8.0 0.00 0.00 0.00 63 1011.8
20260509165523 73 82 2.0 7.0 0.00 0.00 0.00 64 1011.8
20260509165025 73 104 3.0 7.0 0.00 0.00 0.00 65 1011.8
20260509164547 73 12 2.0 6.0 0.00 0.00 0.00 64 1011.8
20260509164021 73 44 1.0 6.0 0.00 0.00 0.00 66 1011.8
20260509163522 72 73 2.0 10.0 0.00 0.00 0.00 66 1011.8
20260509163045 72 69 3.0 10.0 0.00 0.00 0.00 68 1011.9
20260509162522 72 135 5.0 10.0 0.00 0.00 0.00 66 1011.9
20260509162029 72 127 4.0 9.0 0.00 0.00 0.00 67 1011.8
20260509161542 71 121 2.0 6.0 0.00 0.00 0.00 66 1011.9
20260509161021 71 94 1.0 7.0 0.00 0.00 0.00 65 1012.0